Címlap Spotter Aktuális időjárásjelentés, előrejelzés Debrecen Airport (METAR/TAF LHDC/DEB)

Aktuális időjárásjelentés, előrejelzés Debrecen Airport (METAR/TAF LHDC/DEB)

Aktuális szöveges időjárásjelentés / METAR DEB/LHDC és 24 órás szöveges időjárás-előrejelzés / TAF DEB/LHDCDebrecen Airport

Available data for LHDC from the past 6 hours
Metar
LHDC 172245Z 04002KT CAVOK 20/15 Q1016 NOSIG

22:45 UTC

Wind: 40° 2kt

Visibility:

Sky:

Temp: 20 deg C / 68 deg F

Dewpoint: 15 deg C / 59 deg F

Pressure: 1016 hPa

TAF
TAF LHDC 172015Z 1721/1806 04004KT CAVOK

Európa műholdkép

Data is taken from the National Weather Service at NOAA. Satelite image by AustroControl & Meteo-Mc. Only for spotters, do not use for real flight!

A METAR és a TAF adatok a National Weather Service adatbázisából származnak. Az oldalon közölt adatok tájékoztató jellegűek, az oldal üzemeltetője nem vállal felelősséget ezek esetleges pontatlanságáért. Ne használd valós repüléshez!

Légitársaságok, légi utazás hírei